Time,TemperatureF,DewpointF,PressureIn,WindDirection,WindDirectionDegrees,WindSpeedMPH,WindSpeedGustMPH,Humidity,HourlyPrecipIn,Conditions,Clouds,dailyrainin,SoftwareType,DateUTC
2013-03-04 00:06:00,19.6,16.1,29.89,SSW,202,0.0,-999.0,86,-99.99,,,0.00,Acu-Link.com,2013-03-04 05:06:00,
2013-03-04 00:22:00,19.9,17.2,29.89,SSW,202,0.0,-999.0,89,-99.99,,,0.00,Acu-Link.com,2013-03-04 05:22:00,
2013-03-04 00:37:00,19.8,16.8,29.89,SSW,202,0.0,-999.0,88,-99.99,,,0.00,Acu-Link.com,2013-03-04 05:37:00,
2013-03-04 00:52:00,19.6,16.6,29.89,SE,135,0.0,-999.0,88,-99.99,,,0.00,Acu-Link.com,2013-03-04 05:52:00,
2013-03-04 01:07:00,19.4,16.4,29.89,NW,315,0.0,-999.0,88,-99.99,,,0.00,Acu-Link.com,2013-03-04 06:07:00,
2013-03-04 01:22:00,19.0,16.0,29.89,NE,45,0.0,-999.0,88,-99.99,,,0.00,Acu-Link.com,2013-03-04 06:22:00,
2013-03-04 01:37:00,19.4,16.7,29.90,ESE,112,0.0,-999.0,89,-99.99,,,0.00,Acu-Link.com,2013-03-04 06:37:00,
2013-03-04 01:53:00,18.9,15.9,29.90,NE,45,0.0,-999.0,88,-99.99,,,0.00,Acu-Link.com,2013-03-04 06:53:00,
2013-03-04 02:08:00,18.7,15.7,29.90,NE,45,0.0,-999.0,88,-99.99,,,0.00,Acu-Link.com,2013-03-04 07:08:00,
2013-03-04 02:23:00,18.3,15.1,29.91,West,270,0.0,-999.0,87,-99.99,,,0.00,Acu-Link.com,2013-03-04 07:23:00,
2013-03-04 02:39:00,18.3,15.1,29.91,SSE,157,0.0,-999.0,87,-99.99,,,0.00,Acu-Link.com,2013-03-04 07:39:00,
2013-03-04 02:54:00,18.1,15.4,29.91,SSE,157,0.0,-999.0,89,-99.99,,,0.00,Acu-Link.com,2013-03-04 07:54:00,
2013-03-04 03:09:00,18.3,15.9,29.91,SSE,157,0.0,-999.0,90,-99.99,,,0.00,Acu-Link.com,2013-03-04 08:09:00,
2013-03-04 03:25:00,18.3,16.4,29.91,South,180,0.0,-999.0,92,-99.99,,,0.00,Acu-Link.com,2013-03-04 08:25:00,
2013-03-04 03:40:00,17.8,15.1,29.92,South,180,0.0,-999.0,89,-99.99,,,0.00,Acu-Link.com,2013-03-04 08:40:00,
2013-03-04 03:55:00,17.6,14.9,29.92,ESE,112,0.0,-999.0,89,-99.99,,,0.00,Acu-Link.com,2013-03-04 08:55:00,
2013-03-04 04:20:00,17.6,14.7,29.92,East,90,0.0,-999.0,88,-99.99,,,0.00,Acu-Link.com,2013-03-04 09:20:00,
2013-03-04 04:35:00,17.2,14.5,29.94,East,90,0.0,-999.0,89,-99.99,,,0.00,Acu-Link.com,2013-03-04 09:35:00,
2013-03-04 04:50:00,16.7,13.8,29.92,East,90,0.0,-999.0,88,-99.99,,,0.00,Acu-Link.com,2013-03-04 09:50:00,
2013-03-04 05:05:00,16.7,13.8,29.92,East,90,0.0,-999.0,88,-99.99,,,0.00,Acu-Link.com,2013-03-04 10:05:00,
2013-03-04 05:20:00,16.2,12.5,29.93,East,90,0.0,-999.0,85,-99.99,,,0.00,Acu-Link.com,2013-03-04 10:20:00,
2013-03-04 05:36:00,16.0,12.3,29.94,East,90,0.0,-999.0,85,-99.99,,,0.00,Acu-Link.com,2013-03-04 10:36:00,
2013-03-04 05:51:00,16.2,12.8,29.95,East,90,0.0,-999.0,86,-99.99,,,0.00,Acu-Link.com,2013-03-04 10:51:00,
2013-03-04 06:06:00,16.0,12.8,29.94,East,90,0.0,-999.0,87,-99.99,,,0.00,Acu-Link.com,2013-03-04 11:06:00,
2013-03-04 06:22:00,16.0,13.1,29.95,East,90,0.0,-999.0,88,-99.99,,,0.00,Acu-Link.com,2013-03-04 11:22:00,
2013-03-04 06:37:00,16.2,13.3,29.95,East,90,0.0,-999.0,88,-99.99,,,0.00,Acu-Link.com,2013-03-04 11:37:00,
2013-03-04 06:52:00,16.0,12.6,29.95,East,90,0.0,-999.0,86,-99.99,,,0.00,Acu-Link.com,2013-03-04 11:52:00,
2013-03-04 07:07:00,15.6,12.4,29.95,East,90,0.0,-999.0,87,-99.99,,,0.00,Acu-Link.com,2013-03-04 12:07:00,
2013-03-04 07:23:00,16.7,14.5,29.95,East,90,0.0,-999.0,91,-99.99,,,0.00,Acu-Link.com,2013-03-04 12:23:00,
2013-03-04 07:38:00,19.9,19.4,29.96,East,90,0.0,-999.0,98,-99.99,,,0.00,Acu-Link.com,2013-03-04 12:38:00,
2013-03-04 07:53:00,23.4,22.9,29.96,East,90,2.2,-999.0,98,-99.99,,,0.00,Acu-Link.com,2013-03-04 12:53:00,
2013-03-04 08:09:00,25.5,24.0,29.97,ESE,112,0.0,-999.0,94,-99.99,,,0.00,Acu-Link.com,2013-03-04 13:09:00,
2013-03-04 08:24:00,28.2,25.4,29.97,NNE,22,0.0,-999.0,89,-99.99,,,0.00,Acu-Link.com,2013-03-04 13:24:00,
2013-03-04 08:39:00,30.2,23.9,29.98,ESE,112,1.1,-999.0,77,-99.99,,,0.00,Acu-Link.com,2013-03-04 13:39:00,
2013-03-04 08:55:00,30.7,24.0,29.98,WNW,292,0.0,-999.0,76,-99.99,,,0.00,Acu-Link.com,2013-03-04 13:55:00,
2013-03-04 09:10:00,32.2,24.9,29.98,North,0,2.2,-999.0,74,-99.99,,,0.00,Acu-Link.com,2013-03-04 14:10:00,
2013-03-04 09:25:00,34.3,25.6,29.98,SE,135,0.0,-999.0,70,-99.99,,,0.00,Acu-Link.com,2013-03-04 14:25:00,
2013-03-04 09:40:00,39.2,25.3,29.95,NE,45,4.7,-999.0,57,-99.99,,,0.00,Acu-Link.com,2013-03-04 14:40:00,
2013-03-04 09:55:00,37.8,24.8,29.97,NNW,337,0.0,-999.0,59,-99.99,,,0.00,Acu-Link.com,2013-03-04 14:55:00,
2013-03-04 10:10:00,39.7,24.0,29.96,West,270,1.7,-999.0,53,-99.99,,,0.00,Acu-Link.com,2013-03-04 15:10:00,
2013-03-04 10:25:00,38.8,22.7,29.95,SSE,157,2.2,-999.0,52,-99.99,,,0.00,Acu-Link.com,2013-03-04 15:25:00,
2013-03-04 10:41:00,40.1,19.4,29.95,South,180,3.2,-999.0,43,-99.99,,,0.00,Acu-Link.com,2013-03-04 15:41:00,
2013-03-04 10:56:00,40.8,18.9,29.95,NNE,22,4.7,-999.0,41,-99.99,,,0.00,Acu-Link.com,2013-03-04 15:56:00,
2013-03-04 11:12:00,42.8,19.6,29.94,West,270,2.7,-999.0,39,-99.99,,,0.00,Acu-Link.com,2013-03-04 16:12:00,
2013-03-04 11:27:00,44.4,21.0,29.94,SW,225,1.7,-999.0,39,-99.99,,,0.00,Acu-Link.com,2013-03-04 16:27:00,
2013-03-04 11:43:00,44.4,20.4,29.95,SSE,157,2.7,-999.0,38,-99.99,,,0.00,Acu-Link.com,2013-03-04 16:43:00,
2013-03-04 11:58:00,45.5,17.4,29.94,West,270,3.2,-999.0,32,-99.99,,,0.00,Acu-Link.com,2013-03-04 16:58:00,
2013-03-04 12:14:00,52.5,19.5,29.93,SSE,157,1.1,-999.0,27,-99.99,,,0.00,Acu-Link.com,2013-03-04 17:14:00,
2013-03-04 12:29:00,56.1,14.4,29.91,NE,45,3.2,-999.0,19,-99.99,,,0.00,Acu-Link.com,2013-03-04 17:29:00,
2013-03-04 12:44:00,48.9,14.6,29.90,NNE,22,4.7,-999.0,25,-99.99,,,0.00,Acu-Link.com,2013-03-04 17:44:00,
2013-03-04 13:00:00,51.1,18.3,29.90,West,270,2.2,-999.0,27,-99.99,,,0.00,Acu-Link.com,2013-03-04 18:00:00,
2013-03-04 13:15:00,53.8,12.5,29.88,NW,315,3.7,-999.0,19,-99.99,,,0.00,Acu-Link.com,2013-03-04 18:15:00,
2013-03-04 13:30:00,55.8,13.0,29.87,NNW,337,4.2,-999.0,18,-99.99,,,0.00,Acu-Link.com,2013-03-04 18:30:00,
2013-03-04 13:46:00,55.9,11.7,29.86,ESE,112,2.2,-999.0,17,-99.99,,,0.00,Acu-Link.com,2013-03-04 18:46:00,
2013-03-04 14:01:00,56.8,17.3,29.85,WSW,247,3.7,-999.0,21,-99.99,,,0.00,Acu-Link.com,2013-03-04 19:01:00,
2013-03-04 14:16:00,57.0,13.9,29.84,SSE,157,3.2,-999.0,18,-99.99,,,0.00,Acu-Link.com,2013-03-04 19:16:00,
2013-03-04 14:31:00,55.0,14.7,29.83,SSW,202,3.7,-999.0,20,-99.99,,,0.00,Acu-Link.com,2013-03-04 19:31:00,
2013-03-04 14:46:00,59.2,13.1,29.83,East,90,2.7,-999.0,16,-99.99,,,0.00,Acu-Link.com,2013-03-04 19:46:00,
2013-03-04 15:02:00,55.4,12.6,29.84,ESE,112,1.1,-999.0,18,-99.99,,,0.00,Acu-Link.com,2013-03-04 20:02:00,
2013-03-04 15:17:00,52.7,16.0,29.84,South,180,0.0,-999.0,23,-99.99,,,0.00,Acu-Link.com,2013-03-04 20:17:00,
2013-03-04 15:32:00,54.5,14.3,29.84,West,270,2.7,-999.0,20,-99.99,,,0.00,Acu-Link.com,2013-03-04 20:32:00,
2013-03-04 15:48:00,53.1,17.3,29.83,South,180,3.2,-999.0,24,-99.99,,,0.00,Acu-Link.com,2013-03-04 20:48:00,
2013-03-04 16:03:00,52.2,19.2,29.83,West,270,2.7,-999.0,27,-99.99,,,0.00,Acu-Link.com,2013-03-04 21:03:00,
2013-03-04 16:18:00,52.0,17.3,29.83,SSW,202,2.2,-999.0,25,-99.99,,,0.00,Acu-Link.com,2013-03-04 21:18:00,
2013-03-04 16:34:00,51.3,18.5,29.82,WSW,247,0.0,-999.0,27,-99.99,,,0.00,Acu-Link.com,2013-03-04 21:34:00,
2013-03-04 16:49:00,52.5,17.7,29.81,South,180,0.0,-999.0,25,-99.99,,,0.00,Acu-Link.com,2013-03-04 21:49:00,
2013-03-04 17:04:00,52.9,17.1,29.81,ENE,67,0.0,-999.0,24,-99.99,,,0.00,Acu-Link.com,2013-03-04 22:04:00,
2013-03-04 17:19:00,52.2,16.5,29.80,South,180,0.0,-999.0,24,-99.99,,,0.00,Acu-Link.com,2013-03-04 22:19:00,
2013-03-04 17:35:00,52.7,16.9,29.79,NW,315,0.0,-999.0,24,-99.99,,,0.00,Acu-Link.com,2013-03-04 22:35:00,
2013-03-04 17:50:00,51.4,18.6,29.80,NNE,22,0.0,-999.0,27,-99.99,,,0.00,Acu-Link.com,2013-03-04 22:50:00,
2013-03-04 18:05:00,50.7,19.6,29.77,ESE,112,0.0,-999.0,29,-99.99,,,0.00,Acu-Link.com,2013-03-04 23:05:00,
2013-03-04 18:20:00,49.5,20.1,29.78,South,180,0.0,-999.0,31,-99.99,,,0.00,Acu-Link.com,2013-03-04 23:20:00,
2013-03-04 18:35:00,48.6,24.2,29.78,North,0,0.0,-999.0,38,-99.99,,,0.00,Acu-Link.com,2013-03-04 23:35:00,
2013-03-04 18:51:00,46.8,21.9,29.79,NE,45,0.0,-999.0,37,-99.99,,,0.00,Acu-Link.com,2013-03-04 23:51:00,
2013-03-04 19:06:00,45.0,24.4,29.79,ESE,112,0.0,-999.0,44,-99.99,,,0.00,Acu-Link.com,2013-03-05 00:06:00,
2013-03-04 19:21:00,43.9,25.0,29.80,ESE,112,0.0,-999.0,47,-99.99,,,0.00,Acu-Link.com,2013-03-05 00:21:00,
2013-03-04 19:36:00,42.8,25.0,29.78,NW,315,0.0,-999.0,49,-99.99,,,0.00,Acu-Link.com,2013-03-05 00:36:00,
2013-03-04 19:52:00,41.9,24.6,29.77,East,90,0.0,-999.0,50,-99.99,,,0.00,Acu-Link.com,2013-03-05 00:52:00,
2013-03-04 20:07:00,41.5,26.1,29.75,ESE,112,0.0,-999.0,54,-99.99,,,0.00,Acu-Link.com,2013-03-05 01:07:00,
2013-03-04 20:22:00,41.5,26.6,29.76,NNE,22,0.0,-999.0,55,-99.99,,,0.00,Acu-Link.com,2013-03-05 01:22:00,
2013-03-04 20:38:00,41.7,28.9,29.76,WNW,292,0.0,-999.0,60,-99.99,,,0.00,Acu-Link.com,2013-03-05 01:38:00,
2013-03-04 20:53:00,41.4,28.6,29.76,WNW,292,0.0,-999.0,60,-99.99,,,0.00,Acu-Link.com,2013-03-05 01:53:00,
2013-03-04 21:08:00,40.8,29.2,29.78,SW,225,0.0,-999.0,63,-99.99,,,0.00,Acu-Link.com,2013-03-05 02:08:00,
2013-03-04 21:23:00,40.6,28.2,29.77,ESE,112,0.0,-999.0,61,-99.99,,,0.00,Acu-Link.com,2013-03-05 02:23:00,
2013-03-04 21:39:00,40.5,28.5,29.78,NW,315,0.0,-999.0,62,-99.99,,,0.00,Acu-Link.com,2013-03-05 02:39:00,
2013-03-04 21:54:00,40.3,26.3,29.78,SE,135,0.0,-999.0,57,-99.99,,,0.00,Acu-Link.com,2013-03-05 02:54:00,
2013-03-04 22:09:00,40.3,27.5,29.79,NNE,22,0.0,-999.0,60,-99.99,,,0.00,Acu-Link.com,2013-03-05 03:09:00,
2013-03-04 22:25:00,39.2,26.9,29.79,SSW,202,0.0,-999.0,61,-99.99,,,0.00,Acu-Link.com,2013-03-05 03:25:00,
2013-03-04 22:40:00,39.0,25.9,29.80,SSW,202,0.0,-999.0,59,-99.99,,,0.00,Acu-Link.com,2013-03-05 03:40:00,
2013-03-04 22:55:00,37.9,25.7,29.81,South,180,0.0,-999.0,61,-99.99,,,0.00,Acu-Link.com,2013-03-05 03:55:00,
2013-03-04 23:11:00,37.2,25.4,29.80,East,90,0.0,-999.0,62,-99.99,,,0.00,Acu-Link.com,2013-03-05 04:11:00,
2013-03-04 23:26:00,36.7,27.2,29.80,NNW,337,0.0,-999.0,68,-99.99,,,0.00,Acu-Link.com,2013-03-05 04:26:00,
2013-03-04 23:41:00,36.0,26.1,29.80,SE,135,0.0,-999.0,67,-99.99,,,0.00,Acu-Link.com,2013-03-05 04:41:00,
2013-03-04 23:56:00,35.6,26.5,29.80,West,270,0.0,-999.0,69,-99.99,,,0.00,Acu-Link.com,2013-03-05 04:56:00,